Grosse Ile, MI

10:24 PM EDT on September 30, 2016 (GMT -0400)
Grosse Ile Municipal

Weather History for KONZ - January, 2013

Change the Weather History Date:

Monday, January 7, 2013

  Actual Average (KDTW) Record (KDTW)
Temperature  
Mean Temperature 32 °F 26 °F  
Max Temperature 35 °F 32 °F 64 °F (2008)
Min Temperature 30 °F 19 °F -14 °F (2014)
Degree Days  
Heating Degree Days 32 39  
Month to date heating degree days 273  
Since 1 July heating degree days 2570  
Cooling Degree Days 0 0  
Month to date cooling degree days 0  
Year to date cooling degree days 0  
Moisture  
Dew Point 25 °F    
Average Humidity 75    
Maximum Humidity 86    
Minimum Humidity 64    
Precipitation  
Precipitation 0.00 in 0.07 in 0.69 in (1998)
Month to date precipitation 0.50  
Year to date precipitation 0.50  
Snow  
Snow 0.00 in 0.40 in 4.30 in (2010)
Month to date snowfall 2.8  
Since 1 July snowfall 14.0  
Snow Depth -    
Sea Level Pressure  
Sea Level Pressure 30.28 in    
Wind  
Wind Speed 8 mph (SW)    
Max Wind Speed 21 mph    
Max Gust Speed 25 mph    
Visibility 10 miles    
Events      
T = Trace of Precipitation, MM = Missing Value Source: NWS Daily Summary

Daily Weather History Graph

Daily Weather History Graph

Search for Another Location

Airport or City:

Trip Planner

Search our weather history database for the weather conditions in past years. The results will help you decide how hot, cold, wet, or windy it might be!

Date:

Astronomy

Jan. 07, 2013 Rise Set
Actual Time 8:00 AM EST 5:17 PM EST
Civil Twilight 7:29 AM EST 5:48 PM EST
Nautical Twilight 6:54 AM EST 6:23 PM EST
Astronomical Twilight 6:20 AM EST 6:57 PM EST
Moon 3:22 AM EST (1/7) 1:28 PM EST (1/7)
Length of Visible Light 10h 19m
Length of Day
9h 16m
Waning Crescent, 23% of the Moon is Illuminated
Jan 7
Waning Crescent
Jan 11
New
Jan 18
First Quarter
Jan 26
Full
Feb 3
Last Quarter

Hourly Weather History & Observations

Time (EST) Temp. Windchill Dew Point Humidity Pressure Visibility Wind Dir Wind Speed Gust Speed Precip Events Conditions
12:34 AM 33.8 °F 27.7 °F 26.6 °F 75% 30.26 in 10.0 mi WNW 6.9 mph - N/A   Overcast
12:54 AM 33.8 °F 28.6 °F 26.6 °F 75% 30.26 in 10.0 mi WNW 5.8 mph - N/A   Overcast
1:15 AM 33.8 °F 28.6 °F 26.6 °F 75% 30.26 in 10.0 mi WNW 5.8 mph - N/A   Overcast
1:34 AM 33.8 °F 29.6 °F 26.6 °F 75% 30.27 in 10.0 mi WNW 4.6 mph - N/A   Overcast
1:54 AM 32.0 °F 27.5 °F 24.8 °F 75% 30.28 in 10.0 mi WNW 4.6 mph - N/A   Overcast
2:14 AM 33.8 °F 29.6 °F 24.8 °F 70% 30.29 in 10.0 mi WNW 4.6 mph - N/A   Overcast
2:34 AM 33.8 °F 29.6 °F 24.8 °F 70% 30.30 in 10.0 mi WNW 4.6 mph - N/A   Overcast
2:54 AM 32.0 °F 28.7 °F 24.8 °F 75% 30.31 in 10.0 mi WNW 3.5 mph - N/A   Overcast
3:14 AM 32.0 °F - 24.8 °F 75% 30.30 in 10.0 mi Calm Calm - N/A   Overcast
3:34 AM 32.0 °F 28.7 °F 26.6 °F 80% 30.30 in 10.0 mi WNW 3.5 mph - N/A   Overcast
3:54 AM 32.0 °F - 24.8 °F 75% 30.29 in 10.0 mi Calm Calm - N/A   Overcast
4:14 AM 32.0 °F 28.7 °F 24.8 °F 75% 30.30 in 10.0 mi WNW 3.5 mph - N/A   Overcast
4:34 AM 32.0 °F 28.7 °F 24.8 °F 75% 30.31 in 10.0 mi West 3.5 mph - N/A   Overcast
4:54 AM 32.0 °F - 24.8 °F 75% 30.32 in 10.0 mi Calm Calm - N/A   Overcast
5:14 AM 32.0 °F 28.7 °F 24.8 °F 75% 30.32 in 10.0 mi WSW 3.5 mph - N/A   Overcast
5:34 AM 32.0 °F 28.7 °F 24.8 °F 75% 30.32 in 10.0 mi WSW 3.5 mph - N/A   Overcast
5:54 AM 30.2 °F - 23.0 °F 75% 30.33 in 10.0 mi Calm Calm - N/A   Overcast
6:14 AM 32.0 °F - 21.2 °F 64% 30.34 in 10.0 mi Calm Calm - N/A   Overcast
6:35 AM 32.0 °F 27.5 °F 21.2 °F 64% 30.33 in 10.0 mi WSW 4.6 mph - N/A   Overcast
6:54 AM 32.0 °F - 21.2 °F 64% 30.33 in 10.0 mi Calm Calm - N/A   Overcast
7:14 AM 32.0 °F 28.7 °F 24.8 °F 75% 30.34 in 10.0 mi South 3.5 mph - N/A   Overcast
7:35 AM 32.0 °F 27.5 °F 24.8 °F 75% 30.35 in 10.0 mi SW 4.6 mph - N/A   Overcast
7:54 AM 32.0 °F 27.5 °F 24.8 °F 75% 30.35 in 10.0 mi SW 4.6 mph - N/A   Overcast
8:14 AM 32.0 °F 25.6 °F 24.8 °F 75% 30.37 in 10.0 mi SW 6.9 mph - N/A   Overcast
8:34 AM 32.0 °F 26.4 °F 23.0 °F 69% 30.37 in 10.0 mi SW 5.8 mph - N/A   Overcast
8:54 AM 32.0 °F 26.4 °F 21.2 °F 64% 30.37 in 10.0 mi SW 5.8 mph - N/A   Mostly Cloudy
9:34 AM 32.0 °F 25.6 °F 21.2 °F 64% 30.38 in 10.0 mi SW 6.9 mph - N/A   Clear
9:54 AM 32.0 °F 24.8 °F 21.2 °F 64% 30.38 in 10.0 mi SW 8.1 mph - N/A   Clear
10:14 AM 33.8 °F 27.7 °F 23.0 °F 65% 30.38 in 10.0 mi SW 6.9 mph - N/A   Clear
10:34 AM 33.8 °F 27.0 °F 24.8 °F 70% 30.38 in 10.0 mi SSW 8.1 mph - N/A   Clear
10:54 AM 33.8 °F 24.3 °F 23.0 °F 65% 30.38 in 10.0 mi SSW 13.8 mph 19.6 mph N/A   Clear
11:14 AM 33.8 °F 25.3 °F 23.0 °F 65% 30.37 in 10.0 mi SSW 11.5 mph - N/A   Clear
11:34 AM 35.6 °F 27.5 °F 24.8 °F 65% 30.36 in 10.0 mi SSW 11.5 mph - N/A   Clear
11:54 AM 35.6 °F 27.5 °F 24.8 °F 65% 30.35 in 10.0 mi SW 11.5 mph 16.1 mph N/A   Clear
12:34 PM 33.8 °F 23.5 °F 28.4 °F 81% 30.32 in 7.0 mi South 16.1 mph - N/A   Clear
12:54 PM 33.8 °F 23.2 °F 28.4 °F 81% 30.31 in 7.0 mi South 17.3 mph - N/A   Clear
1:14 PM 33.8 °F 23.9 °F 26.6 °F 75% 30.30 in 7.0 mi South 15.0 mph - N/A   Clear
1:34 PM 33.8 °F 22.8 °F 28.4 °F 81% 30.29 in 10.0 mi South 18.4 mph - N/A   Clear
2:14 PM 33.8 °F 23.2 °F 28.4 °F 81% 30.28 in 10.0 mi South 17.3 mph - N/A   Clear
2:35 PM 33.8 °F 22.5 °F 26.6 °F 75% 30.27 in 10.0 mi South 19.6 mph - N/A   Clear
2:54 PM 33.8 °F 22.2 °F 26.6 °F 75% 30.26 in 10.0 mi South 20.7 mph - N/A   Clear
3:14 PM 33.8 °F 22.2 °F 26.6 °F 75% 30.25 in 10.0 mi South 20.7 mph - N/A   Clear
3:34 PM 33.8 °F 22.5 °F 26.6 °F 75% 30.25 in 10.0 mi SSW 19.6 mph 25.3 mph N/A   Clear
3:54 PM 33.8 °F 22.2 °F 26.6 °F 75% 30.25 in 10.0 mi South 20.7 mph - N/A   Clear
4:15 PM 33.8 °F 23.5 °F 26.6 °F 75% 30.25 in 10.0 mi SSW 16.1 mph 23.0 mph N/A   Clear
4:34 PM 33.8 °F 23.5 °F 26.6 °F 75% 30.24 in 10.0 mi SSW 16.1 mph 24.2 mph N/A   Clear
4:54 PM 33.8 °F 23.2 °F 26.6 °F 75% 30.23 in 10.0 mi SSW 17.3 mph 24.2 mph N/A   Clear
5:14 PM 33.8 °F 22.8 °F 26.6 °F 75% 30.23 in 10.0 mi SSW 18.4 mph - N/A   Clear
5:34 PM 32.0 °F 20.5 °F 26.6 °F 80% 30.22 in 10.0 mi SSW 18.4 mph - N/A   Clear
6:14 PM 32.0 °F 21.2 °F 26.6 °F 80% 30.23 in 10.0 mi SSW 16.1 mph 21.9 mph N/A   Clear
6:34 PM 32.0 °F 22.1 °F 26.6 °F 80% 30.23 in 10.0 mi SSW 13.8 mph 19.6 mph N/A   Clear
6:54 PM 32.0 °F 20.8 °F 24.8 °F 75% 30.22 in 10.0 mi SSW 17.3 mph 21.9 mph N/A   Clear
7:14 PM 32.0 °F 21.6 °F 26.6 °F 80% 30.22 in 10.0 mi SSW 15.0 mph 23.0 mph N/A   Clear
7:34 PM 32.0 °F 20.5 °F 26.6 °F 80% 30.21 in 10.0 mi SSW 18.4 mph - N/A   Clear
7:54 PM 32.0 °F 21.2 °F 26.6 °F 80% 30.21 in 10.0 mi SSW 16.1 mph 20.7 mph N/A   Clear
8:14 PM 30.2 °F 18.9 °F 26.6 °F 86% 30.20 in 10.0 mi SSW 16.1 mph - N/A   Clear
8:34 PM 30.2 °F 18.9 °F 26.6 °F 86% 30.20 in 10.0 mi SSW 16.1 mph - N/A   Clear
8:54 PM 30.2 °F 20.8 °F 24.8 °F 80% 30.20 in 10.0 mi SSW 11.5 mph - N/A   Clear
9:14 PM 30.2 °F 19.8 °F 24.8 °F 80% 30.19 in 10.0 mi SSW 13.8 mph - N/A   Clear
9:35 PM 30.2 °F 20.2 °F 24.8 °F 80% 30.19 in 10.0 mi South 12.7 mph - N/A   Clear
9:54 PM 30.2 °F 19.8 °F 24.8 °F 80% 30.18 in 10.0 mi SSW 13.8 mph - N/A   Clear
10:14 PM 30.2 °F 20.8 °F 24.8 °F 80% 30.18 in 10.0 mi SSW 11.5 mph - N/A   Clear
10:35 PM 30.2 °F 20.8 °F 24.8 °F 80% 30.17 in 10.0 mi SSW 11.5 mph - N/A   Clear
10:54 PM 30.2 °F 20.8 °F 24.8 °F 80% 30.16 in 10.0 mi SSW 11.5 mph - N/A   Clear
11:14 PM 30.2 °F 20.2 °F 24.8 °F 80% 30.16 in 10.0 mi SSW 12.7 mph - N/A   Clear
11:34 PM 30.2 °F 20.8 °F 24.8 °F 80% 30.16 in 10.0 mi SSW 11.5 mph - N/A   Clear
11:54 PM 30.2 °F 22.6 °F 24.8 °F 80% 30.16 in 10.0 mi SSW 8.1 mph - N/A   Clear